Flag for Brazil Weather past 2 weeks in Boa Vista, Roraima, Brazil

Now
79 °F

Passing clouds.


Feels Like: 82 °F
Forecast: 78 / 92 °F
Wind: No wind

Location: Boa Vista Aeropor-To

Current Time: Aug 20, 2014 at 11:35:48 PM

Latest Report: Aug 20, 2014 at 11:00 PM


Visibility: N/A

Pressure: 29.95 "Hg

Humidity: 79%

Dew point: 72 °F

Location of Boa VistaLocation

Historic Weather in Boa Vista — Graph

°F

Boa Vista temperature yesterday

Maximum temperature yesterday: 90 °F (at 2:00 PM)
Minimum temperature yesterday: 77 °F (at 12:00 AM)
Average temperature yesterday: 83 °F

Past Weeks' High & Low Weather Summary

 TemperatureHumidityPressure
High93 °F (Aug 20, 2:00 PM)100% (Aug 11, 11:00 AM)30.04 "Hg (Aug 11, 11:00 AM)
Low36 °F (Aug 12, 4:00 PM)24% (Aug 17, 6:00 PM)29.80 "Hg (Aug 10, 5:00 PM)
Average80 °F78%29.93 "Hg
* Reported Aug 5 10:00 PM — Aug 20 10:00 PM, Boa Vista, Weather by CustomWeather, © 2014

Note: Actual official high and low records may vary slightly from our data, if they occured in-between our weather recording intervals... More about our weather records

Advertising

Boa Vista weather history for previous 24 hours

 ConditionsComfort  
Time TempWeatherWind HumidityBarometerVisibility
10:00 PM
Aug 20
81 °FPartly cloudy.2 mph79%29.95 "HgN/A
9:00 PM81 °FPartly cloudy.3 mph79%29.92 "HgN/A
8:00 PM82 °FPartly cloudy.2 mph74%29.89 "HgN/A
7:00 PM82 °FPartly cloudy.6 mph70%29.86 "HgN/A
6:00 PM84 °FBroken clouds.8 mph66%29.86 "HgN/A
5:00 PM90 °FScattered showers. Broken clouds.8 mph49%N/AN/A
4:00 PM91 °FScattered clouds.6 mph49%29.83 "HgN/A
3:00 PM93 °FScattered clouds.9 mph41%29.83 "HgN/A
2:00 PM93 °FScattered clouds.No wind44%29.86 "HgN/A
1:00 PM91 °FScattered clouds.5 mph46%29.89 "HgN/A
12:00 PM90 °FScattered clouds.7 mph49%29.95 "HgN/A
11:00 AM90 °FScattered clouds.7 mph55%29.95 "HgN/A
10:00 AM86 °FSunny.7 mph62%29.98 "Hg10 mi
9:00 AM82 °FSunny.No wind70%29.98 "Hg10 mi
8:00 AM81 °FSunny.No wind70%29.98 "Hg10 mi
7:00 AM77 °FSunny.No wind83%29.95 "Hg10 mi
6:00 AM77 °FSunny.No wind83%29.92 "Hg10 mi
5:00 AM77 °FPassing clouds.No wind83%29.92 "HgN/A
4:00 AM77 °FPassing clouds.No wind83%29.89 "HgN/A
3:00 AM79 °FPassing clouds.No wind89%29.89 "HgN/A
2:00 AM79 °FPassing clouds.No wind89%29.89 "HgN/A
1:00 AM79 °FPassing clouds.No wind89%29.92 "HgN/A
12:00 AM79 °FPassing clouds.3 mph89%29.95 "HgN/A
11:00 PM
Aug 19
82 °FPartly cloudy.3 mph74%29.95 "HgN/A
Weather by CustomWeather, © 2014

See weather overviewHow to use our weather pages